Location: Babice
(50.3480°N, 22.9363°E)
Time: 12:51:03
(UTC+00:00)

ATLAS 5 CENTAUR R/B - Pass Details

Date: 14 July 2020
Orbit: 534 x 1124 km, 63.4° (Epoch: 03 August)

Event Time Altitude Azimuth Distance (km) Brightness Sun altitude
Rises 01:35:28 0° 314° (NW) 3,270 5.3 -7.7°
Reaches altitude 10° 01:37:47 10° 309° (NW) 2,426 4.6 -7.4°
Maximum altitude 01:43:16 52° 235° (SW) 1,136 2.5 -6.8°
Drops below altitude 10° 01:49:36 10° 161° (SSE) 2,797 4.6 -6.1°
Sets 01:52:27 0° 157° (SSE) 3,815 5.4 -5.8°
